{"data":{"norad_id":63032,"intl_designator":"2025-034D","name":"STARLINK-32776","alt_names":[],"object_type":"PAYLOAD","status":"ACTIVE","operator":null,"country":"US","launch_date":"2025-02-18","launch_site_code":"AFETR","launch_vehicle":null,"mission":null,"orbit_class":"UNKNOWN","rcs_meters":null,"size_class":null,"mass_kg":null,"dimensions":null,"purposes":["comms"],"wikipedia_slug":null,"has_3d_model":false,"image_url":null,"decayed_at":null,"tle_current":{"epoch":"2026-09-21T19:14:55.177728Z","epoch_age_seconds":52720,"freshness":"FRESH","line1":"1 63032U 25034D   26264.80202752  .00019175  00000+0  57729-3 0  9999","line2":"2 63032  53.1593  63.5746 0000867  87.9508 272.1594 15.34394617 89168","mean_motion":15.34394617,"eccentricity":8.67e-5,"inclination_deg":53.1593,"raan_deg":63.5746,"arg_perigee_deg":87.9508,"mean_anomaly_deg":272.1594,"bstar":0.00057729,"rev_number":8916,"period_min":93.848087320291,"perigee_km":462.12613742832,"apogee_km":463.31234190027,"semimajor_km":6840.8562396643,"source":"CELESTRAK","updated_at":"2026-09-22T09:00:49.743788Z"}}}